Time,TemperatureF,DewpointF,PressureIn,WindDirection,WindDirectionDegrees,WindSpeedMPH,WindSpeedGustMPH,Humidity,HourlyPrecipIn,Conditions,Clouds,dailyrainin,SoftwareType,DateUTC
2013-04-30 00:01:00,59.4,52.5,29.79,SE,135,2.0,3.5,78,0.00,CLR,SKC,0.00,WeatherDisplay:10.37,2013-04-30 04:01:00,
2013-04-30 00:06:00,59.4,52.5,29.79,ESE,112,0.2,1.1,78,0.00,CLR,SKC,0.00,WeatherDisplay:10.37,2013-04-30 04:06:00,
2013-04-30 00:11:00,59.4,52.5,29.79,SE,135,1.6,3.5,78,0.00,CLR,SKC,0.00,WeatherDisplay:10.37,2013-04-30 04:11:00,
2013-04-30 00:16:00,59.2,52.3,29.79,ESE,112,5.1,6.9,78,0.00,CLR,SKC,0.00,WeatherDisplay:10.37,2013-04-30 04:16:00,
2013-04-30 00:21:00,59.2,52.3,29.79,ESE,112,1.6,5.8,78,0.00,CLR,SKC,0.00,WeatherDisplay:10.37,2013-04-30 04:21:00,
2013-04-30 00:26:00,59.2,52.3,29.79,SE,135,1.6,3.5,78,0.00,CLR,SKC,0.00,WeatherDisplay:10.37,2013-04-30 04:26:00,
2013-04-30 00:31:00,59.0,52.1,29.79,SE,135,1.2,2.3,78,0.00,CLR,SKC,0.00,WeatherDisplay:10.37,2013-04-30 04:31:00,
2013-04-30 00:36:00,58.8,52.3,29.79,SE,135,1.6,3.5,79,0.00,CLR,SKC,0.00,WeatherDisplay:10.37,2013-04-30 04:36:00,
2013-04-30 00:41:00,58.8,52.3,29.80,SE,135,2.2,3.5,79,0.00,CLR,SKC,0.00,WeatherDisplay:10.37,2013-04-30 04:41:00,
2013-04-30 00:46:00,58.6,52.1,29.80,ESE,112,1.0,2.3,79,0.00,CLR,SKC,0.00,WeatherDisplay:10.37,2013-04-30 04:46:00,
2013-04-30 00:51:00,58.6,52.1,29.79,SE,135,2.6,3.8,79,0.00,CLR,SKC,0.00,WeatherDisplay:10.37,2013-04-30 04:51:00,
2013-04-30 00:56:00,58.6,52.1,29.79,East,90,2.3,4.6,79,0.00,CLR,SKC,0.00,WeatherDisplay:10.37,2013-04-30 04:56:00,
2013-04-30 01:01:00,58.5,52.0,29.80,SE,135,0.8,0.0,79,0.00,CLR,SKC,0.00,WeatherDisplay:10.37,2013-04-30 05:01:00,
2013-04-30 01:06:00,58.3,51.8,29.80,SSE,158,1.4,3.5,79,0.00,CLR,SKC,0.00,WeatherDisplay:10.37,2013-04-30 05:06:00,
2013-04-30 01:11:00,58.1,51.6,29.80,SE,135,1.2,3.5,79,0.00,CLR,SKC,0.00,WeatherDisplay:10.37,2013-04-30 05:11:00,
2013-04-30 01:16:00,57.9,51.4,29.80,SE,135,2.7,4.7,79,0.00,CLR,SKC,0.00,WeatherDisplay:10.37,2013-04-30 05:16:00,
2013-04-30 01:21:00,57.9,51.4,29.80,ESE,112,0.1,1.1,79,0.00,CLR,SKC,0.00,WeatherDisplay:10.37,2013-04-30 05:21:00,
2013-04-30 01:26:00,57.9,51.4,29.80,SE,135,0.2,1.1,79,0.00,CLR,SKC,0.00,WeatherDisplay:10.37,2013-04-30 05:26:00,
2013-04-30 01:31:00,57.7,51.3,29.79,ESE,112,0.5,2.3,79,0.00,CLR,SKC,0.00,WeatherDisplay:10.37,2013-04-30 05:31:00,
2013-04-30 01:36:00,57.7,51.6,29.79,SSE,158,1.4,4.6,80,0.00,CLR,SKC,0.00,WeatherDisplay:10.37,2013-04-30 05:36:00,
2013-04-30 01:41:00,57.7,51.6,29.80,ESE,112,1.7,6.9,80,0.00,CLR,SKC,0.00,WeatherDisplay:10.37,2013-04-30 05:41:00,
2013-04-30 01:46:00,57.7,51.6,29.80,SE,135,2.0,4.6,80,0.00,CLR,SKC,0.00,WeatherDisplay:10.37,2013-04-30 05:46:00,
2013-04-30 01:51:00,57.7,51.6,29.80,SSE,158,0.7,5.8,80,0.00,CLR,SKC,0.00,WeatherDisplay:10.37,2013-04-30 05:51:00,
2013-04-30 01:56:00,57.7,51.6,29.79,South,180,4.5,6.9,80,0.00,CLR,SKC,0.00,WeatherDisplay:10.37,2013-04-30 05:56:00,
2013-04-30 02:01:00,57.7,51.6,29.80,SE,135,1.2,4.6,80,0.00,CLR,SKC,0.00,WeatherDisplay:10.37,2013-04-30 06:01:00,
2013-04-30 02:06:00,57.6,51.4,29.80,ENE,68,1.2,3.5,80,0.00,CLR,SKC,0.00,WeatherDisplay:10.37,2013-04-30 06:06:00,
2013-04-30 02:11:00,57.4,51.3,29.80,SE,135,0.6,2.3,80,0.00,CLR,SKC,0.00,WeatherDisplay:10.37,2013-04-30 06:11:00,
2013-04-30 02:16:00,57.4,51.3,29.80,SE,135,0.5,1.1,80,0.00,CLR,SKC,0.00,WeatherDisplay:10.37,2013-04-30 06:16:00,
2013-04-30 02:21:00,57.4,51.3,29.81,ESE,112,0.2,1.1,80,0.00,CLR,SKC,0.00,WeatherDisplay:10.37,2013-04-30 06:21:00,
2013-04-30 02:26:00,57.4,51.3,29.81,SE,135,0.4,3.5,80,0.00,CLR,SKC,0.00,WeatherDisplay:10.37,2013-04-30 06:26:00,
2013-04-30 02:31:00,57.4,51.3,29.80,South,180,1.3,4.9,80,0.00,CLR,SKC,0.00,WeatherDisplay:10.37,2013-04-30 06:31:00,
2013-04-30 02:36:00,57.0,50.9,29.80,SE,135,2.2,3.5,80,0.00,CLR,SKC,0.00,WeatherDisplay:10.37,2013-04-30 06:36:00,
2013-04-30 02:41:00,57.0,50.9,29.80,SE,135,2.4,3.5,80,0.00,CLR,SKC,0.00,WeatherDisplay:10.37,2013-04-30 06:41:00,
2013-04-30 02:46:00,57.0,50.9,29.81,SSE,158,1.2,2.3,80,0.00,CLR,SKC,0.00,WeatherDisplay:10.37,2013-04-30 06:46:00,
2013-04-30 02:51:00,57.0,50.9,29.81,SE,135,0.0,0.0,80,0.00,CLR,SKC,0.00,WeatherDisplay:10.37,2013-04-30 06:51:00,
2013-04-30 02:56:00,57.0,50.9,29.80,SE,135,1.1,2.3,80,0.00,CLR,SKC,0.00,WeatherDisplay:10.37,2013-04-30 06:56:00,
2013-04-30 03:01:00,56.8,50.7,29.80,SSE,158,4.2,8.1,80,0.00,CLR,SKC,0.00,WeatherDisplay:10.37,2013-04-30 07:01:00,
2013-04-30 03:06:00,56.8,50.7,29.80,SE,135,2.7,3.5,80,0.00,CLR,SKC,0.00,WeatherDisplay:10.37,2013-04-30 07:06:00,
2013-04-30 03:11:00,56.8,50.7,29.80,SSE,158,0.9,4.6,80,0.00,CLR,SKC,0.00,WeatherDisplay:10.37,2013-04-30 07:11:00,
2013-04-30 03:16:00,56.8,50.7,29.80,SSE,158,1.0,3.5,80,0.00,CLR,SKC,0.00,WeatherDisplay:10.37,2013-04-30 07:16:00,
2013-04-30 03:21:00,56.8,50.7,29.80,SW,225,1.4,3.5,80,0.00,CLR,SKC,0.00,WeatherDisplay:10.37,2013-04-30 07:21:00,
2013-04-30 03:26:00,56.8,50.7,29.80,SE,135,0.4,1.1,80,0.00,CLR,SKC,0.00,WeatherDisplay:10.37,2013-04-30 07:26:00,
2013-04-30 03:31:00,56.8,50.7,29.80,SSE,158,2.4,8.1,80,0.00,CLR,SKC,0.00,WeatherDisplay:10.37,2013-04-30 07:31:00,
2013-04-30 03:36:00,56.8,50.7,29.81,ESE,112,0.1,3.4,80,0.00,CLR,SKC,0.00,WeatherDisplay:10.37,2013-04-30 07:36:00,
2013-04-30 03:41:00,56.8,50.7,29.81,ESE,112,2.9,3.5,80,0.00,CLR,SKC,0.00,WeatherDisplay:10.37,2013-04-30 07:41:00,
2013-04-30 03:46:00,56.8,50.7,29.81,SE,135,0.9,3.5,80,0.00,CLR,SKC,0.00,WeatherDisplay:10.37,2013-04-30 07:46:00,
2013-04-30 03:51:00,56.8,50.7,29.81,SSW,202,0.5,2.5,80,0.00,CLR,SKC,0.00,WeatherDisplay:10.37,2013-04-30 07:51:00,
2013-04-30 03:56:00,56.8,50.7,29.81,SSE,158,1.8,3.5,80,0.00,CLR,SKC,0.00,WeatherDisplay:10.37,2013-04-30 07:56:00,
2013-04-30 04:01:00,56.8,50.7,29.82,SE,135,2.6,5.8,80,0.00,CLR,SKC,0.00,WeatherDisplay:10.37,2013-04-30 08:01:00,
2013-04-30 04:06:00,56.7,50.6,29.81,SE,135,0.3,3.1,80,0.00,CLR,SKC,0.00,WeatherDisplay:10.37,2013-04-30 08:06:00,
2013-04-30 04:11:00,56.5,50.7,29.81,SE,135,5.8,9.2,81,0.00,CLR,SKC,0.00,WeatherDisplay:10.37,2013-04-30 08:11:00,
2013-04-30 04:16:00,56.5,50.7,29.81,ESE,112,1.6,3.5,81,0.00,CLR,SKC,0.00,WeatherDisplay:10.37,2013-04-30 08:16:00,
2013-04-30 04:21:00,56.3,50.5,29.80,SE,135,1.7,3.5,81,0.00,CLR,SKC,0.00,WeatherDisplay:10.37,2013-04-30 08:21:00,
2013-04-30 04:26:00,56.3,50.5,29.80,SSW,202,1.0,2.3,81,0.00,CLR,SKC,0.00,WeatherDisplay:10.37,2013-04-30 08:26:00,
2013-04-30 04:31:00,56.3,50.5,29.80,SE,135,0.9,3.5,81,0.00,CLR,SKC,0.00,WeatherDisplay:10.37,2013-04-30 08:31:00,
2013-04-30 04:36:00,56.1,50.4,29.80,South,180,1.4,3.5,81,0.00,CLR,SKC,0.00,WeatherDisplay:10.37,2013-04-30 08:36:00,
2013-04-30 04:41:00,56.1,50.4,29.79,SE,135,1.4,4.5,81,0.00,CLR,SKC,0.00,WeatherDisplay:10.37,2013-04-30 08:41:00,
2013-04-30 04:46:00,56.1,50.4,29.80,SSE,158,3.0,6.9,81,0.00,CLR,SKC,0.00,WeatherDisplay:10.37,2013-04-30 08:46:00,
2013-04-30 04:51:00,56.1,50.4,29.79,SE,135,1.3,3.5,81,0.00,CLR,SKC,0.00,WeatherDisplay:10.37,2013-04-30 08:51:00,
2013-04-30 04:56:00,56.1,50.4,29.79,SE,135,1.8,3.5,81,0.00,CLR,SKC,0.00,WeatherDisplay:10.37,2013-04-30 08:56:00,
2013-04-30 05:01:00,55.9,50.2,29.80,SE,135,1.7,3.5,81,0.00,CLR,SKC,0.00,WeatherDisplay:10.37,2013-04-30 09:01:00,
2013-04-30 05:06:00,55.9,50.2,29.80,SE,135,2.1,5.8,81,0.00,CLR,SKC,0.00,WeatherDisplay:10.37,2013-04-30 09:06:00,
2013-04-30 05:11:00,55.9,50.2,29.80,SE,135,3.0,9.2,81,0.00,CLR,SKC,0.00,WeatherDisplay:10.37,2013-04-30 09:11:00,
2013-04-30 05:16:00,55.9,50.5,29.80,SE,135,1.9,3.5,82,0.00,CLR,SKC,0.00,WeatherDisplay:10.37,2013-04-30 09:16:00,
2013-04-30 05:21:00,55.9,50.5,29.80,SE,135,2.3,6.9,82,0.00,CLR,SKC,0.00,WeatherDisplay:10.37,2013-04-30 09:21:00,
2013-04-30 05:26:00,55.9,50.5,29.80,SSE,158,1.3,2.3,82,0.00,CLR,SKC,0.00,WeatherDisplay:10.37,2013-04-30 09:26:00,
2013-04-30 05:31:00,55.9,50.5,29.81,ESE,112,0.2,3.5,82,0.00,CLR,SKC,0.00,WeatherDisplay:10.37,2013-04-30 09:31:00,
2013-04-30 05:36:00,55.9,50.5,29.80,SE,135,0.3,3.5,82,0.00,CLR,SKC,0.00,WeatherDisplay:10.37,2013-04-30 09:36:00,
2013-04-30 05:41:00,55.9,50.5,29.80,SE,135,0.7,2.3,82,0.00,CLR,SKC,0.00,WeatherDisplay:10.37,2013-04-30 09:41:00,
2013-04-30 05:46:00,55.8,50.3,29.80,SE,135,1.8,4.6,82,0.00,CLR,SKC,0.00,WeatherDisplay:10.37,2013-04-30 09:46:00,
2013-04-30 05:51:00,55.8,50.0,29.82,SSE,158,0.6,5.4,81,0.00,CLR,SKC,0.00,WeatherDisplay:10.37,2013-04-30 09:51:00,
2013-04-30 05:56:00,55.8,50.0,29.81,ESE,112,0.3,2.3,81,0.00,CLR,SKC,0.00,WeatherDisplay:10.37,2013-04-30 09:56:00,
2013-04-30 06:01:00,55.9,50.5,29.81,SE,135,1.9,3.5,82,0.00,CLR,SKC,0.00,WeatherDisplay:10.37,2013-04-30 10:01:00,
2013-04-30 06:06:00,55.9,50.5,29.82,SSE,158,1.1,2.3,82,0.00,CLR,SKC,0.00,WeatherDisplay:10.37,2013-04-30 10:06:00,
2013-04-30 06:11:00,55.9,50.5,29.82,SE,135,0.2,1.6,82,0.00,CLR,SKC,0.00,WeatherDisplay:10.37,2013-04-30 10:11:00,
2013-04-30 06:16:00,55.9,50.5,29.82,ESE,112,1.1,1.1,82,0.00,CLR,SKC,0.00,WeatherDisplay:10.37,2013-04-30 10:16:00,
2013-04-30 06:21:00,55.9,50.5,29.81,SE,135,1.2,2.5,82,0.00,CLR,SKC,0.00,WeatherDisplay:10.37,2013-04-30 10:21:00,
2013-04-30 06:26:00,56.1,50.7,29.82,South,180,1.4,4.6,82,0.00,CLR,SKC,0.00,WeatherDisplay:10.37,2013-04-30 10:26:00,
2013-04-30 06:31:00,56.1,50.7,29.81,ESE,112,0.5,2.3,82,0.00,CLR,SKC,0.00,WeatherDisplay:10.37,2013-04-30 10:31:00,
2013-04-30 06:36:00,55.9,50.5,29.81,ESE,112,0.5,1.1,82,0.00,CLR,SKC,0.00,WeatherDisplay:10.37,2013-04-30 10:36:00,
2013-04-30 06:41:00,56.1,50.7,29.82,SE,135,1.6,4.6,82,0.00,CLR,SKC,0.00,WeatherDisplay:10.37,2013-04-30 10:41:00,
2013-04-30 06:46:00,56.1,50.7,29.82,SE,135,0.6,1.1,82,0.00,CLR,SKC,0.00,WeatherDisplay:10.37,2013-04-30 10:46:00,
2013-04-30 06:51:00,56.1,50.7,29.81,ESE,112,0.9,2.3,82,0.00,CLR,SKC,0.00,WeatherDisplay:10.37,2013-04-30 10:51:00,
2013-04-30 06:56:00,56.1,50.7,29.81,ESE,112,1.2,2.3,82,0.00,CLR,SKC,0.00,WeatherDisplay:10.37,2013-04-30 10:56:00,
2013-04-30 07:01:00,56.3,50.9,29.81,SE,135,1.4,2.3,82,0.00,CLR,SKC,0.00,WeatherDisplay:10.37,2013-04-30 11:01:00,
2013-04-30 07:06:00,56.5,51.1,29.81,SE,135,1.1,2.3,82,0.00,CLR,SKC,0.00,WeatherDisplay:10.37,2013-04-30 11:06:00,
2013-04-30 07:11:00,56.5,50.7,29.82,ESE,112,1.0,1.6,81,0.00,CLR,SKC,0.00,WeatherDisplay:10.37,2013-04-30 11:11:00,
2013-04-30 07:16:00,56.8,51.1,29.82,SE,135,2.0,3.5,81,0.00,CLR,SKC,0.00,WeatherDisplay:10.37,2013-04-30 11:16:00,
2013-04-30 07:21:00,56.8,51.1,29.82,SSE,158,1.7,3.5,81,0.00,CLR,SKC,0.00,WeatherDisplay:10.37,2013-04-30 11:21:00,
2013-04-30 07:26:00,57.0,51.2,29.82,SSE,158,0.8,3.5,81,0.00,CLR,SKC,0.00,WeatherDisplay:10.37,2013-04-30 11:26:00,
2013-04-30 07:31:00,57.4,51.6,29.82,SE,135,3.8,6.9,81,0.00,CLR,SKC,0.00,WeatherDisplay:10.37,2013-04-30 11:31:00,
2013-04-30 07:36:00,57.7,51.9,29.82,SSE,158,2.8,10.4,81,0.00,CLR,SKC,0.00,WeatherDisplay:10.37,2013-04-30 11:36:00,
2013-04-30 07:41:00,58.1,52.0,29.82,SE,135,2.2,3.5,80,0.00,CLR,SKC,0.00,WeatherDisplay:10.37,2013-04-30 11:41:00,
2013-04-30 07:46:00,58.6,52.1,29.83,ESE,112,2.5,5.8,79,0.00,CLR,SKC,0.00,WeatherDisplay:10.37,2013-04-30 11:46:00,
2013-04-30 07:51:00,58.8,52.3,29.82,SE,135,2.2,3.5,79,0.00,CLR,SKC,0.00,WeatherDisplay:10.37,2013-04-30 11:51:00,
2013-04-30 07:56:00,59.4,52.8,29.82,SSE,158,0.2,1.1,79,0.00,CLR,SKC,0.00,WeatherDisplay:10.37,2013-04-30 11:56:00,
2013-04-30 08:01:00,59.5,52.7,29.82,ESE,112,0.4,1.1,78,0.00,CLR,SKC,0.00,WeatherDisplay:10.37,2013-04-30 12:01:00,
2013-04-30 08:06:00,60.1,53.2,29.82,SSE,158,2.2,4.6,78,0.00,CLR,SKC,0.00,WeatherDisplay:10.37,2013-04-30 12:06:00,
2013-04-30 08:11:00,60.6,53.4,29.82,SSE,158,0.7,4.6,77,0.00,CLR,SKC,0.00,WeatherDisplay:10.37,2013-04-30 12:11:00,
2013-04-30 08:16:00,61.2,53.5,29.82,SSE,158,1.7,3.5,76,0.00,CLR,SKC,0.00,WeatherDisplay:10.37,2013-04-30 12:16:00,
2013-04-30 08:21:00,61.5,53.9,29.82,SE,135,2.3,5.8,76,0.00,CLR,SKC,0.00,WeatherDisplay:10.37,2013-04-30 12:21:00,
2013-04-30 08:26:00,61.5,53.5,29.83,ESE,112,2.0,3.5,75,0.00,CLR,SKC,0.00,WeatherDisplay:10.37,2013-04-30 12:26:00,
2013-04-30 08:31:00,61.9,53.5,29.83,ESE,112,0.8,3.5,74,0.00,CLR,SKC,0.00,WeatherDisplay:10.37,2013-04-30 12:31:00,
2013-04-30 08:36:00,62.2,53.8,29.83,SW,225,3.5,4.6,74,0.00,CLR,SKC,0.00,WeatherDisplay:10.37,2013-04-30 12:36:00,
2013-04-30 08:41:00,62.4,54.0,29.83,South,180,3.8,3.8,74,0.00,CLR,SKC,0.00,WeatherDisplay:10.37,2013-04-30 12:41:00,
2013-04-30 08:46:00,63.0,54.2,29.83,ESE,112,1.7,3.5,73,0.00,CLR,SKC,0.00,WeatherDisplay:10.37,2013-04-30 12:46:00,
2013-04-30 08:51:00,63.3,54.5,29.84,SE,135,0.8,2.3,73,0.00,CLR,SKC,0.00,WeatherDisplay:10.37,2013-04-30 12:51:00,
2013-04-30 08:56:00,63.7,54.9,29.83,SSW,202,2.6,3.5,73,0.00,CLR,SKC,0.00,WeatherDisplay:10.37,2013-04-30 12:56:00,
2013-04-30 09:01:00,64.0,54.8,29.84,WSW,248,2.7,5.8,72,0.00,CLR,SKC,0.00,WeatherDisplay:10.37,2013-04-30 13:01:00,
2013-04-30 09:06:00,64.2,55.0,29.84,SE,135,4.0,5.8,72,0.00,CLR,SKC,0.00,WeatherDisplay:10.37,2013-04-30 13:06:00,
2013-04-30 09:11:00,64.4,54.8,29.84,East,90,2.3,4.6,71,0.00,CLR,SKC,0.00,WeatherDisplay:10.37,2013-04-30 13:11:00,
2013-04-30 09:16:00,64.6,55.0,29.84,ESE,112,0.1,1.1,71,0.00,CLR,SKC,0.00,WeatherDisplay:10.37,2013-04-30 13:16:00,
2013-04-30 09:21:00,64.9,54.9,29.84,SE,135,2.0,5.8,70,0.00,CLR,SKC,0.00,WeatherDisplay:10.37,2013-04-30 13:21:00,
2013-04-30 09:26:00,65.1,55.1,29.84,South,180,0.1,1.1,70,0.00,CLR,SKC,0.00,WeatherDisplay:10.37,2013-04-30 13:26:00,
2013-04-30 09:31:00,65.5,55.4,29.83,South,180,2.5,4.6,70,0.00,CLR,SKC,0.00,WeatherDisplay:10.37,2013-04-30 13:31:00,
2013-04-30 09:36:00,66.0,55.6,29.83,SSW,202,2.6,4.9,69,0.00,CLR,SKC,0.00,WeatherDisplay:10.37,2013-04-30 13:36:00,
2013-04-30 09:41:00,66.4,55.5,29.83,East,90,0.8,5.8,68,0.00,CLR,SKC,0.00,WeatherDisplay:10.37,2013-04-30 13:41:00,
2013-04-30 09:46:00,66.6,55.7,29.83,SW,225,4.8,5.8,68,0.00,CLR,SKC,0.00,WeatherDisplay:10.37,2013-04-30 13:46:00,
2013-04-30 09:51:00,66.9,56.0,29.83,SSE,158,1.9,4.6,68,0.00,CLR,SKC,0.00,WeatherDisplay:10.37,2013-04-30 13:51:00,
2013-04-30 09:56:00,67.3,55.9,29.83,ENE,68,1.6,3.5,67,0.00,CLR,SKC,0.00,WeatherDisplay:10.37,2013-04-30 13:56:00,
2013-04-30 10:01:00,67.6,56.3,29.84,South,180,2.7,4.6,67,0.00,CLR,SKC,0.00,WeatherDisplay:10.37,2013-04-30 14:01:00,
2013-04-30 10:06:00,68.2,56.8,29.83,SSE,158,0.9,3.5,67,0.00,CLR,SKC,0.00,WeatherDisplay:10.37,2013-04-30 14:06:00,
2013-04-30 10:11:00,68.5,56.7,29.83,SE,135,6.5,10.4,66,0.00,CLR,SKC,0.00,WeatherDisplay:10.37,2013-04-30 14:11:00,
2013-04-30 10:16:00,69.4,57.6,29.84,SSW,202,1.9,5.1,66,0.00,CLR,SKC,0.00,WeatherDisplay:10.37,2013-04-30 14:16:00,
2013-04-30 10:21:00,70.2,57.8,29.84,SSW,202,4.3,6.9,65,0.00,CLR,SKC,0.00,WeatherDisplay:10.37,2013-04-30 14:21:00,
2013-04-30 10:26:00,70.9,58.1,29.84,SSW,202,7.3,10.4,64,0.00,CLR,SKC,0.00,WeatherDisplay:10.37,2013-04-30 14:26:00,
2013-04-30 10:31:00,71.6,58.3,29.84,East,90,1.2,3.5,63,0.00,CLR,SKC,0.00,WeatherDisplay:10.37,2013-04-30 14:31:00,
2013-04-30 10:36:00,72.0,58.2,29.84,SSE,158,4.7,9.2,62,0.00,CLR,SKC,0.00,WeatherDisplay:10.37,2013-04-30 14:36:00,
2013-04-30 10:41:00,72.3,58.6,29.83,ESE,112,2.5,3.5,62,0.00,CLR,SKC,0.00,WeatherDisplay:10.37,2013-04-30 14:41:00,
2013-04-30 10:46:00,72.5,58.7,29.83,SW,225,2.7,5.8,62,0.00,CLR,SKC,0.00,WeatherDisplay:10.37,2013-04-30 14:46:00,
2013-04-30 10:51:00,73.0,59.2,29.84,South,180,2.3,3.5,62,0.00,CLR,SKC,0.00,WeatherDisplay:10.37,2013-04-30 14:51:00,
2013-04-30 10:56:00,73.4,59.1,29.83,SW,225,4.9,8.1,61,0.00,CLR,SKC,0.00,WeatherDisplay:10.37,2013-04-30 14:56:00,
2013-04-30 11:01:00,73.4,58.7,29.84,SW,225,5.3,9.2,60,0.00,CLR,SKC,0.00,WeatherDisplay:10.37,2013-04-30 15:01:00,
2013-04-30 11:06:00,73.6,59.3,29.83,SSE,158,1.4,3.5,61,0.00,CLR,SKC,0.00,WeatherDisplay:10.37,2013-04-30 15:06:00,
2013-04-30 11:11:00,73.9,59.2,29.83,SW,225,6.4,10.4,60,0.00,CLR,SKC,0.00,WeatherDisplay:10.37,2013-04-30 15:11:00,
2013-04-30 11:16:00,74.1,58.9,29.83,South,180,1.2,3.5,59,0.00,CLR,SKC,0.00,WeatherDisplay:10.37,2013-04-30 15:16:00,
2013-04-30 11:21:00,74.5,59.2,29.83,West,270,2.0,5.8,59,0.00,CLR,SKC,0.00,WeatherDisplay:10.37,2013-04-30 15:21:00,
2013-04-30 11:26:00,75.4,60.5,29.84,SW,225,7.9,10.4,60,0.00,CLR,SKC,0.00,WeatherDisplay:10.37,2013-04-30 15:26:00,
2013-04-30 11:31:00,76.1,60.7,29.83,SSW,202,1.9,8.1,59,0.00,CLR,SKC,0.00,WeatherDisplay:10.37,2013-04-30 15:31:00,
2013-04-30 11:36:00,77.0,61.6,29.83,SSE,158,5.3,11.5,59,0.00,CLR,SKC,0.00,WeatherDisplay:10.37,2013-04-30 15:36:00,
2013-04-30 11:41:00,77.4,61.4,29.83,SSE,158,4.0,9.2,58,0.00,CLR,SKC,0.00,WeatherDisplay:10.37,2013-04-30 15:41:00,
2013-04-30 11:46:00,77.5,61.6,29.83,SSE,158,5.1,9.2,58,0.00,CLR,SKC,0.00,WeatherDisplay:10.37,2013-04-30 15:46:00,
2013-04-30 11:51:00,77.7,61.8,29.84,SSE,158,1.5,3.5,58,0.00,CLR,SKC,0.00,WeatherDisplay:10.37,2013-04-30 15:51:00,
2013-04-30 11:56:00,77.7,61.3,29.84,SW,225,5.8,8.1,57,0.00,CLR,SKC,0.00,WeatherDisplay:10.37,2013-04-30 15:56:00,
2013-04-30 12:01:00,77.7,60.8,29.84,SW,225,4.3,10.4,56,0.00,CLR,SKC,0.00,WeatherDisplay:10.37,2013-04-30 16:01:00,
2013-04-30 12:06:00,77.7,60.8,29.84,SW,225,1.5,8.1,56,0.00,CLR,SKC,0.00,WeatherDisplay:10.37,2013-04-30 16:06:00,
2013-04-30 12:11:00,77.9,61.4,29.84,SE,135,2.2,3.5,57,0.00,CLR,SKC,0.00,WeatherDisplay:10.37,2013-04-30 16:11:00,
2013-04-30 12:16:00,78.4,61.4,29.84,SE,135,0.5,2.3,56,0.00,CLR,SKC,0.00,WeatherDisplay:10.37,2013-04-30 16:16:00,
2013-04-30 12:21:00,79.2,61.6,29.84,North,0,4.1,8.1,55,0.00,CLR,SKC,0.00,WeatherDisplay:10.37,2013-04-30 16:21:00,
2013-04-30 12:26:00,79.3,61.8,29.84,SW,225,2.0,5.8,55,0.00,CLR,SKC,0.00,WeatherDisplay:10.37,2013-04-30 16:26:00,
2013-04-30 12:31:00,80.2,62.6,29.84,SSW,202,3.1,4.6,55,0.00,CLR,SKC,0.00,WeatherDisplay:10.37,2013-04-30 16:31:00,
2013-04-30 12:36:00,80.4,62.2,29.84,SSW,202,2.4,3.5,54,0.00,CLR,SKC,0.00,WeatherDisplay:10.37,2013-04-30 16:36:00,
2013-04-30 12:41:00,80.6,62.4,29.84,ESE,112,0.9,2.3,54,0.00,CLR,SKC,0.00,WeatherDisplay:10.37,2013-04-30 16:41:00,
2013-04-30 12:46:00,81.0,62.7,29.83,SSW,202,2.1,6.9,54,0.00,CLR,SKC,0.00,WeatherDisplay:10.37,2013-04-30 16:46:00,
2013-04-30 12:51:00,81.3,63.1,29.84,SSW,202,2.8,6.9,54,0.00,CLR,SKC,0.00,WeatherDisplay:10.37,2013-04-30 16:51:00,
2013-04-30 12:56:00,81.1,62.9,29.83,SW,225,2.4,5.8,54,0.00,CLR,SKC,0.00,WeatherDisplay:10.37,2013-04-30 16:56:00,
2013-04-30 13:01:00,81.0,62.7,29.83,ESE,112,5.9,10.4,54,0.00,CLR,SKC,0.00,WeatherDisplay:10.37,2013-04-30 17:01:00,
2013-04-30 13:06:00,80.8,62.6,29.83,SSW,202,4.9,6.9,54,0.00,CLR,SKC,0.00,WeatherDisplay:10.37,2013-04-30 17:06:00,
2013-04-30 13:11:00,81.0,62.2,29.83,SW,225,5.5,8.1,53,0.00,CLR,SKC,0.00,WeatherDisplay:10.37,2013-04-30 17:11:00,
2013-04-30 13:16:00,81.1,62.4,29.83,SSE,158,3.3,6.9,53,0.00,CLR,SKC,0.00,WeatherDisplay:10.37,2013-04-30 17:16:00,
2013-04-30 13:21:00,81.0,62.2,29.83,SE,135,1.2,3.5,53,0.00,CLR,SKC,0.00,WeatherDisplay:10.37,2013-04-30 17:21:00,
2013-04-30 13:26:00,81.0,62.2,29.83,SE,135,4.2,6.9,53,0.00,CLR,SKC,0.00,WeatherDisplay:10.37,2013-04-30 17:26:00,
2013-04-30 13:31:00,81.0,62.2,29.82,SSE,158,1.1,12.7,53,0.00,CLR,SKC,0.00,WeatherDisplay:10.37,2013-04-30 17:31:00,
2013-04-30 13:36:00,81.1,62.4,29.82,SSE,158,2.8,4.6,53,0.00,CLR,SKC,0.00,WeatherDisplay:10.37,2013-04-30 17:36:00,
2013-04-30 13:41:00,81.1,62.4,29.82,SW,225,4.3,6.9,53,0.00,CLR,SKC,0.00,WeatherDisplay:10.37,2013-04-30 17:41:00,
2013-04-30 13:46:00,81.3,62.6,29.82,ENE,68,2.3,6.9,53,0.00,CLR,SKC,0.00,WeatherDisplay:10.37,2013-04-30 17:46:00,
2013-04-30 13:51:00,81.5,62.7,29.82,SE,135,3.0,5.6,53,0.00,CLR,SKC,0.00,WeatherDisplay:10.37,2013-04-30 17:51:00,
2013-04-30 13:56:00,81.7,62.3,29.82,SE,135,5.9,8.3,52,0.00,CLR,SKC,0.00,WeatherDisplay:10.37,2013-04-30 17:56:00,
2013-04-30 14:01:00,81.5,62.2,29.82,South,180,4.0,4.6,52,0.00,CLR,SKC,0.00,WeatherDisplay:10.37,2013-04-30 18:01:00,
2013-04-30 14:06:00,81.3,62.0,29.82,NNE,22,3.7,6.9,52,0.00,CLR,SKC,0.00,WeatherDisplay:10.37,2013-04-30 18:06:00,
2013-04-30 14:11:00,81.3,62.0,29.82,SW,225,5.7,8.1,52,0.00,CLR,SKC,0.00,WeatherDisplay:10.37,2013-04-30 18:11:00,
2013-04-30 14:16:00,81.3,62.0,29.81,ESE,112,4.8,8.1,52,0.00,CLR,SKC,0.00,WeatherDisplay:10.37,2013-04-30 18:16:00,
2013-04-30 14:21:00,81.3,62.0,29.82,SE,135,2.9,5.8,52,0.00,CLR,SKC,0.00,WeatherDisplay:10.37,2013-04-30 18:21:00,
2013-04-30 14:26:00,81.5,62.2,29.81,South,180,2.9,4.6,52,0.00,CLR,SKC,0.00,WeatherDisplay:10.37,2013-04-30 18:26:00,
2013-04-30 14:31:00,81.7,62.3,29.81,SSE,158,1.6,3.5,52,0.00,CLR,SKC,0.00,WeatherDisplay:10.37,2013-04-30 18:31:00,
2013-04-30 14:36:00,81.7,61.8,29.81,SE,135,3.7,12.7,51,0.00,CLR,SKC,0.00,WeatherDisplay:10.37,2013-04-30 18:36:00,
2013-04-30 14:41:00,81.7,61.8,29.81,South,180,5.2,10.4,51,0.00,CLR,SKC,0.00,WeatherDisplay:10.37,2013-04-30 18:41:00,
2013-04-30 14:46:00,81.7,61.2,29.81,SSW,202,5.3,8.1,50,0.00,CLR,SKC,0.00,WeatherDisplay:10.37,2013-04-30 18:46:00,
2013-04-30 14:51:00,81.9,62.5,29.80,WSW,248,2.3,6.9,52,0.00,CLR,SKC,0.00,WeatherDisplay:10.37,2013-04-30 18:51:00,
2013-04-30 14:56:00,82.2,61.7,29.81,SE,135,2.3,5.8,50,0.00,CLR,SKC,0.00,WeatherDisplay:10.37,2013-04-30 18:56:00,
2013-04-30 15:01:00,82.0,62.1,29.81,SE,135,3.1,4.6,51,0.00,CLR,SKC,0.00,WeatherDisplay:10.37,2013-04-30 19:01:00,
2013-04-30 15:06:00,82.2,61.7,29.81,SSW,202,3.2,10.4,50,0.00,CLR,SKC,0.00,WeatherDisplay:10.37,2013-04-30 19:06:00,
2013-04-30 15:11:00,82.0,61.6,29.81,SSE,158,4.7,6.9,50,0.00,CLR,SKC,0.00,WeatherDisplay:10.37,2013-04-30 19:11:00,
2013-04-30 15:16:00,82.0,61.0,29.81,South,180,5.0,13.8,49,0.00,CLR,SKC,0.00,WeatherDisplay:10.37,2013-04-30 19:16:00,
2013-04-30 15:21:00,82.2,61.7,29.80,SSE,158,4.3,6.9,50,0.00,CLR,SKC,0.00,WeatherDisplay:10.37,2013-04-30 19:21:00,
2013-04-30 15:26:00,82.2,61.7,29.80,SSE,158,2.5,3.5,50,0.00,CLR,SKC,0.00,WeatherDisplay:10.37,2013-04-30 19:26:00,
2013-04-30 15:31:00,82.6,62.1,29.80,SSE,158,2.6,4.6,50,0.00,CLR,SKC,0.00,WeatherDisplay:10.37,2013-04-30 19:31:00,
2013-04-30 15:36:00,82.6,61.5,29.80,SE,135,2.3,5.8,49,0.00,CLR,SKC,0.00,WeatherDisplay:10.37,2013-04-30 19:36:00,
2013-04-30 15:41:00,82.6,62.1,29.80,SE,135,2.7,8.1,50,0.00,CLR,SKC,0.00,WeatherDisplay:10.37,2013-04-30 19:41:00,
2013-04-30 15:46:00,82.8,61.6,29.80,SSE,158,4.7,6.9,49,0.00,CLR,SKC,0.00,WeatherDisplay:10.37,2013-04-30 19:46:00,
2013-04-30 15:51:00,82.6,61.5,29.80,SE,135,7.0,9.2,49,0.00,CLR,SKC,0.00,WeatherDisplay:10.37,2013-04-30 19:51:00,
2013-04-30 15:56:00,82.8,61.1,29.80,SE,135,4.8,9.2,48,0.00,CLR,SKC,0.00,WeatherDisplay:10.37,2013-04-30 19:56:00,
2013-04-30 16:01:00,82.8,61.1,29.79,West,270,5.4,11.5,48,0.00,CLR,SKC,0.00,WeatherDisplay:10.37,2013-04-30 20:01:00,
2013-04-30 16:06:00,82.9,61.8,29.79,SSW,202,3.3,6.9,49,0.00,CLR,SKC,0.00,WeatherDisplay:10.37,2013-04-30 20:06:00,
2013-04-30 16:11:00,83.1,61.4,29.79,SW,225,4.7,6.9,48,0.00,CLR,SKC,0.00,WeatherDisplay:10.37,2013-04-30 20:11:00,
2013-04-30 16:16:00,83.3,61.6,29.79,SSE,158,0.2,4.7,48,0.00,CLR,SKC,0.00,WeatherDisplay:10.37,2013-04-30 20:16:00,
2013-04-30 16:21:00,83.5,61.1,29.79,SE,135,3.2,6.9,47,0.00,CLR,SKC,0.00,WeatherDisplay:10.37,2013-04-30 20:21:00,
2013-04-30 16:26:00,83.1,60.8,29.79,SSE,158,1.1,6.9,47,0.00,CLR,SKC,0.00,WeatherDisplay:10.37,2013-04-30 20:26:00,
2013-04-30 16:31:00,83.1,60.8,29.79,SE,135,4.4,8.1,47,0.00,CLR,SKC,0.00,WeatherDisplay:10.37,2013-04-30 20:31:00,
2013-04-30 16:36:00,83.3,61.0,29.79,South,180,0.9,3.5,47,0.00,CLR,SKC,0.00,WeatherDisplay:10.37,2013-04-30 20:36:00,
2013-04-30 16:41:00,83.5,61.7,29.79,SW,225,3.4,10.4,48,0.00,CLR,SKC,0.00,WeatherDisplay:10.37,2013-04-30 20:41:00,
2013-04-30 16:46:00,83.5,60.5,29.79,South,180,1.9,5.8,46,0.00,CLR,SKC,0.00,WeatherDisplay:10.37,2013-04-30 20:46:00,
2013-04-30 16:51:00,83.7,60.7,29.79,SSW,202,3.2,4.6,46,0.00,CLR,SKC,0.00,WeatherDisplay:10.37,2013-04-30 20:51:00,
2013-04-30 16:56:00,83.5,61.1,29.78,SSW,202,4.0,9.2,47,0.00,CLR,SKC,0.00,WeatherDisplay:10.37,2013-04-30 20:56:00,
2013-04-30 17:01:00,83.5,60.5,29.78,West,270,3.9,8.1,46,0.00,CLR,SKC,0.00,WeatherDisplay:10.37,2013-04-30 21:01:00,
2013-04-30 17:06:00,83.3,61.0,29.78,ESE,112,2.8,8.3,47,0.00,CLR,SKC,0.00,WeatherDisplay:10.37,2013-04-30 21:06:00,
2013-04-30 17:11:00,83.5,61.1,29.78,ESE,112,3.1,8.1,47,0.00,CLR,SKC,0.00,WeatherDisplay:10.37,2013-04-30 21:11:00,
2013-04-30 17:16:00,83.3,61.6,29.79,SSW,202,2.7,6.9,48,0.00,CLR,SKC,0.00,WeatherDisplay:10.37,2013-04-30 21:16:00,
2013-04-30 17:21:00,83.3,61.6,29.79,ESE,112,4.1,6.9,48,0.00,CLR,SKC,0.00,WeatherDisplay:10.37,2013-04-30 21:21:00,
2013-04-30 17:26:00,83.1,60.8,29.79,SE,135,4.2,5.8,47,0.00,CLR,SKC,0.00,WeatherDisplay:10.37,2013-04-30 21:26:00,
2013-04-30 17:31:00,83.1,61.4,29.79,SSW,202,6.1,8.1,48,0.00,CLR,SKC,0.00,WeatherDisplay:10.37,2013-04-30 21:31:00,
2013-04-30 17:36:00,83.1,61.4,29.79,SSE,158,4.9,17.9,48,0.00,CLR,SKC,0.00,WeatherDisplay:10.37,2013-04-30 21:36:00,
2013-04-30 17:41:00,83.1,61.4,29.79,ESE,112,3.2,6.3,48,0.00,CLR,SKC,0.00,WeatherDisplay:10.37,2013-04-30 21:41:00,
2013-04-30 17:46:00,82.9,61.2,29.79,West,270,4.2,6.9,48,0.00,CLR,SKC,0.00,WeatherDisplay:10.37,2013-04-30 21:46:00,
2013-04-30 17:51:00,82.9,60.6,29.80,SSE,158,2.8,9.2,47,0.00,CLR,SKC,0.00,WeatherDisplay:10.37,2013-04-30 21:51:00,
2013-04-30 17:56:00,82.9,61.2,29.79,SE,135,1.7,2.3,48,0.00,CLR,SKC,0.00,WeatherDisplay:10.37,2013-04-30 21:56:00,
2013-04-30 18:01:00,82.8,61.6,29.79,ESE,112,4.5,6.0,49,0.00,CLR,SKC,0.00,WeatherDisplay:10.37,2013-04-30 22:01:00,
2013-04-30 18:06:00,82.6,61.5,29.79,NNW,338,1.7,3.5,49,0.00,CLR,SKC,0.00,WeatherDisplay:10.37,2013-04-30 22:06:00,
2013-04-30 18:11:00,82.8,62.2,29.79,SW,225,2.7,4.6,50,0.00,CLR,SKC,0.00,WeatherDisplay:10.37,2013-04-30 22:11:00,
2013-04-30 18:16:00,82.6,62.1,29.80,ESE,112,3.4,6.9,50,0.00,CLR,SKC,0.00,WeatherDisplay:10.37,2013-04-30 22:16:00,
2013-04-30 18:21:00,82.2,61.7,29.80,SE,135,4.7,11.5,50,0.00,CLR,SKC,0.00,WeatherDisplay:10.37,2013-04-30 22:21:00,
2013-04-30 18:26:00,82.2,61.7,29.80,East,90,3.2,5.8,50,0.00,CLR,SKC,0.00,WeatherDisplay:10.37,2013-04-30 22:26:00,
2013-04-30 18:31:00,82.2,62.3,29.80,ESE,112,2.7,4.6,51,0.00,CLR,SKC,0.00,WeatherDisplay:10.37,2013-04-30 22:31:00,
2013-04-30 18:36:00,82.0,62.1,29.80,SSW,202,2.8,9.2,51,0.00,CLR,SKC,0.00,WeatherDisplay:10.37,2013-04-30 22:36:00,
2013-04-30 18:41:00,82.0,62.1,29.80,SE,135,2.4,4.6,51,0.00,CLR,SKC,0.00,WeatherDisplay:10.37,2013-04-30 22:41:00,
2013-04-30 18:46:00,82.0,62.7,29.81,NW,315,3.1,4.6,52,0.00,CLR,SKC,0.00,WeatherDisplay:10.37,2013-04-30 22:46:00,
2013-04-30 18:51:00,82.2,62.3,29.81,South,180,2.0,3.5,51,0.00,CLR,SKC,0.00,WeatherDisplay:10.37,2013-04-30 22:51:00,
2013-04-30 18:56:00,82.0,62.1,29.81,SE,135,4.8,8.1,51,0.00,CLR,SKC,0.00,WeatherDisplay:10.37,2013-04-30 22:56:00,
2013-04-30 19:01:00,81.9,62.0,29.82,SE,135,2.3,4.6,51,0.00,CLR,SKC,0.00,WeatherDisplay:10.37,2013-04-30 23:01:00,
2013-04-30 19:06:00,81.7,62.3,29.81,ESE,112,3.3,3.5,52,0.00,CLR,SKC,0.00,WeatherDisplay:10.37,2013-04-30 23:06:00,
2013-04-30 19:11:00,81.5,62.2,29.82,SE,135,4.3,6.9,52,0.00,CLR,SKC,0.00,WeatherDisplay:10.37,2013-04-30 23:11:00,
2013-04-30 19:16:00,81.3,62.0,29.82,SE,135,3.2,8.1,52,0.00,CLR,SKC,0.00,WeatherDisplay:10.37,2013-04-30 23:16:00,
2013-04-30 19:21:00,81.1,62.4,29.82,South,180,2.4,4.6,53,0.00,CLR,SKC,0.00,WeatherDisplay:10.37,2013-04-30 23:21:00,
2013-04-30 19:26:00,81.1,62.4,29.82,South,180,1.2,2.3,53,0.00,CLR,SKC,0.00,WeatherDisplay:10.37,2013-04-30 23:26:00,
2013-04-30 19:31:00,81.1,62.4,29.83,WSW,248,2.3,5.1,53,0.00,CLR,SKC,0.00,WeatherDisplay:10.37,2013-04-30 23:31:00,
2013-04-30 19:36:00,80.8,62.1,29.82,SE,135,0.9,2.3,53,0.00,CLR,SKC,0.00,WeatherDisplay:10.37,2013-04-30 23:36:00,
2013-04-30 19:41:00,80.8,62.1,29.82,SSW,202,0.4,1.1,53,0.00,CLR,SKC,0.00,WeatherDisplay:10.37,2013-04-30 23:41:00,
2013-04-30 19:46:00,80.4,61.7,29.82,East,90,2.6,4.6,53,0.00,CLR,SKC,0.00,WeatherDisplay:10.37,2013-04-30 23:46:00,
2013-04-30 19:51:00,80.2,61.6,29.83,SE,135,3.2,4.6,53,0.00,CLR,SKC,0.00,WeatherDisplay:10.37,2013-04-30 23:51:00,
2013-04-30 19:56:00,79.9,61.7,29.83,SSW,202,1.1,2.0,54,0.00,CLR,SKC,0.00,WeatherDisplay:10.37,2013-04-30 23:56:00,
2013-04-30 20:01:00,79.5,61.4,29.83,SW,225,1.2,4.6,54,0.00,CLR,SKC,0.00,WeatherDisplay:10.37,2013-05-01 00:01:00,
2013-04-30 20:06:00,79.2,61.6,29.83,SSW,202,1.2,3.5,55,0.00,CLR,SKC,0.00,WeatherDisplay:10.37,2013-05-01 00:06:00,
2013-04-30 20:11:00,78.6,61.1,29.83,SE,135,4.8,5.8,55,0.00,CLR,SKC,0.00,WeatherDisplay:10.37,2013-05-01 00:11:00,
2013-04-30 20:16:00,78.4,60.9,29.83,ESE,112,1.1,2.3,55,0.00,CLR,SKC,0.00,WeatherDisplay:10.37,2013-05-01 00:16:00,
2013-04-30 20:21:00,78.1,61.1,29.84,SSE,158,0.7,2.7,56,0.00,CLR,SKC,0.00,WeatherDisplay:10.37,2013-05-01 00:21:00,
2013-04-30 20:26:00,77.7,60.8,29.84,SSW,202,0.0,0.0,56,0.00,CLR,SKC,0.00,WeatherDisplay:10.37,2013-05-01 00:26:00,
2013-04-30 20:31:00,77.4,60.9,29.84,South,180,1.3,2.3,57,0.00,CLR,SKC,0.00,WeatherDisplay:10.37,2013-05-01 00:31:00,
2013-04-30 20:36:00,76.8,60.4,29.84,SE,135,0.2,1.1,57,0.00,CLR,SKC,0.00,WeatherDisplay:10.37,2013-05-01 00:36:00,
2013-04-30 20:41:00,76.6,60.8,29.84,SSE,158,1.0,1.1,58,0.00,CLR,SKC,0.00,WeatherDisplay:10.37,2013-05-01 00:41:00,
2013-04-30 20:46:00,76.3,60.4,29.85,SSW,202,0.0,0.0,58,0.00,CLR,SKC,0.00,WeatherDisplay:10.37,2013-05-01 00:46:00,
2013-04-30 20:51:00,75.9,60.1,29.84,SE,135,0.0,1.1,58,0.00,CLR,SKC,0.00,WeatherDisplay:10.37,2013-05-01 00:51:00,
2013-04-30 20:56:00,75.6,59.7,29.84,SE,135,0.0,0.0,58,0.00,CLR,SKC,0.00,WeatherDisplay:10.37,2013-05-01 00:56:00,
2013-04-30 21:01:00,75.4,60.1,29.85,SE,135,0.0,0.0,59,0.00,CLR,SKC,0.00,WeatherDisplay:10.37,2013-05-01 01:01:00,
2013-04-30 21:06:00,75.0,59.7,29.85,South,180,0.0,0.0,59,0.00,CLR,SKC,0.00,WeatherDisplay:10.37,2013-05-01 01:06:00,
2013-04-30 21:11:00,74.8,59.5,29.85,SW,225,1.3,4.6,59,0.00,CLR,SKC,0.00,WeatherDisplay:10.37,2013-05-01 01:11:00,
2013-04-30 21:16:00,74.5,59.7,29.85,SW,225,0.0,0.0,60,0.00,CLR,SKC,0.00,WeatherDisplay:10.37,2013-05-01 01:16:00,
2013-04-30 21:21:00,74.3,59.5,29.85,SE,135,1.0,3.5,60,0.00,CLR,SKC,0.00,WeatherDisplay:10.37,2013-05-01 01:21:00,
2013-04-30 21:26:00,74.1,59.8,29.85,ESE,112,0.0,0.0,61,0.00,CLR,SKC,0.00,WeatherDisplay:10.37,2013-05-01 01:26:00,
2013-04-30 21:31:00,73.8,59.5,29.86,SE,135,1.0,3.8,61,0.00,CLR,SKC,0.00,WeatherDisplay:10.37,2013-05-01 01:31:00,
2013-04-30 21:36:00,73.6,59.8,29.86,SE,135,0.7,1.1,62,0.00,CLR,SKC,0.00,WeatherDisplay:10.37,2013-05-01 01:36:00,
2013-04-30 21:41:00,73.2,59.4,29.86,SE,135,1.0,5.8,62,0.00,CLR,SKC,0.00,WeatherDisplay:10.37,2013-05-01 01:41:00,
2013-04-30 21:46:00,73.0,59.2,29.86,South,180,0.6,1.1,62,0.00,CLR,SKC,0.00,WeatherDisplay:10.37,2013-05-01 01:46:00,
2013-04-30 21:51:00,72.9,59.5,29.86,SSW,202,0.5,2.3,63,0.00,CLR,SKC,0.00,WeatherDisplay:10.37,2013-05-01 01:51:00,
2013-04-30 21:56:00,72.7,59.4,29.87,South,180,0.0,0.0,63,0.00,CLR,SKC,0.00,WeatherDisplay:10.37,2013-05-01 01:56:00,
2013-04-30 22:01:00,72.5,59.2,29.87,SSE,158,0.1,1.1,63,0.00,CLR,SKC,0.00,WeatherDisplay:10.37,2013-05-01 02:01:00,
2013-04-30 22:06:00,72.3,59.0,29.87,SE,135,0.9,3.5,63,0.00,CLR,SKC,0.00,WeatherDisplay:10.37,2013-05-01 02:06:00,
2013-04-30 22:11:00,72.1,58.8,29.87,SE,135,0.4,3.5,63,0.00,CLR,SKC,0.00,WeatherDisplay:10.37,2013-05-01 02:11:00,
2013-04-30 22:16:00,72.1,58.8,29.87,SSW,202,0.6,2.3,63,0.00,CLR,SKC,0.00,WeatherDisplay:10.37,2013-05-01 02:16:00,
2013-04-30 22:21:00,72.0,59.1,29.87,SSW,202,0.5,2.3,64,0.00,CLR,SKC,0.00,WeatherDisplay:10.37,2013-05-01 02:21:00,
2013-04-30 22:26:00,71.8,58.9,29.87,SSE,158,0.8,2.3,64,0.00,CLR,SKC,0.00,WeatherDisplay:10.37,2013-05-01 02:26:00,
2013-04-30 22:31:00,71.8,59.4,29.87,ENE,68,1.5,4.6,65,0.00,CLR,SKC,0.00,WeatherDisplay:10.37,2013-05-01 02:31:00,
2013-04-30 22:36:00,71.6,59.2,29.87,SE,135,2.6,3.5,65,0.00,CLR,SKC,0.00,WeatherDisplay:10.37,2013-05-01 02:36:00,
2013-04-30 22:41:00,71.4,59.0,29.87,SE,135,1.4,3.5,65,0.00,CLR,SKC,0.00,WeatherDisplay:10.37,2013-05-01 02:41:00,
2013-04-30 22:46:00,71.4,59.5,29.88,SSE,158,0.9,3.5,66,0.00,CLR,SKC,0.00,WeatherDisplay:10.37,2013-05-01 02:46:00,
2013-04-30 22:51:00,71.2,59.3,29.88,South,180,1.2,3.5,66,0.00,CLR,SKC,0.00,WeatherDisplay:10.37,2013-05-01 02:51:00,
2013-04-30 22:56:00,71.2,59.3,29.88,SW,225,2.3,4.6,66,0.00,CLR,SKC,0.00,WeatherDisplay:10.37,2013-05-01 02:56:00,
2013-04-30 23:01:00,70.9,59.0,29.87,SE,135,0.6,3.5,66,0.00,CLR,SKC,0.00,WeatherDisplay:10.37,2013-05-01 03:01:00,
2013-04-30 23:06:00,70.9,59.4,29.88,SSW,202,1.0,2.3,67,0.00,CLR,SKC,0.00,WeatherDisplay:10.37,2013-05-01 03:06:00,
2013-04-30 23:11:00,70.5,59.0,29.88,South,180,2.2,4.6,67,0.00,CLR,SKC,0.00,WeatherDisplay:10.37,2013-05-01 03:11:00,
2013-04-30 23:16:00,70.3,58.9,29.88,SE,135,1.4,3.5,67,0.00,CLR,SKC,0.00,WeatherDisplay:10.37,2013-05-01 03:16:00,
2013-04-30 23:21:00,70.3,58.9,29.87,SE,135,0.0,2.5,67,0.00,CLR,SKC,0.00,WeatherDisplay:10.37,2013-05-01 03:21:00,
2013-04-30 23:26:00,70.0,58.9,29.88,SE,135,4.3,6.9,68,0.00,CLR,SKC,0.00,WeatherDisplay:10.37,2013-05-01 03:26:00,
2013-04-30 23:31:00,70.0,58.9,29.88,South,180,1.9,4.6,68,0.00,CLR,SKC,0.00,WeatherDisplay:10.37,2013-05-01 03:31:00,
2013-04-30 23:36:00,69.6,58.6,29.87,SE,135,1.9,3.5,68,0.00,CLR,SKC,0.00,WeatherDisplay:10.37,2013-05-01 03:36:00,
2013-04-30 23:41:00,69.6,59.0,29.88,SE,135,4.5,8.1,69,0.00,CLR,SKC,0.00,WeatherDisplay:10.37,2013-05-01 03:41:00,
2013-04-30 23:46:00,69.4,58.4,29.88,SSW,202,0.7,3.5,68,0.00,CLR,SKC,0.00,WeatherDisplay:10.37,2013-05-01 03:46:00,
2013-04-30 23:51:00,69.3,58.7,29.88,SE,135,1.3,4.6,69,0.00,CLR,SKC,0.00,WeatherDisplay:10.37,2013-05-01 03:51:00,
2013-04-30 23:56:00,69.1,58.5,29.88,WSW,248,2.6,4.6,69,0.00,CLR,SKC,0.00,WeatherDisplay:10.37,2013-05-01 03:56:00,